{"data":{"norad_id":62632,"epoch":"2026-09-22T19:48:56.420064Z","epoch_age_seconds":116649,"freshness":"FRESH","line1":"1 62632U 25009Z   26265.82565301  .00003644  00000+0  14665-3 0  9997","line2":"2 62632  97.3945 344.8749 0002538 358.4396   1.6833 15.25517097 93682","mean_motion":15.25517097,"eccentricity":0.0002538,"inclination_deg":97.3945,"raan_deg":344.8749,"arg_perigee_deg":358.4396,"mean_anomaly_deg":1.6833,"bstar":0.00014665,"rev_number":9368,"period_min":94.394222315294,"perigee_km":487.4901910287,"apogee_km":490.97606810647,"semimajor_km":6867.3701295676,"source":"CELESTRAK","updated_at":"2026-09-23T09:00:21.534024Z"}}